Flag for Switzerland Weather past 2 weeks in Sarnen, Obwalden, Switzerland

Now
32 °F

Chilly.


Feels Like: 32 °F
Forecast: 31 / 38 °F
Wind: 1 mph from West

Location: Giswil

Current Time: Jan 29, 2015 at 10:07:06 AM

Latest Report: Jan 29, 2015 at 9:00 AM


Visibility: N/A

Pressure: 29.66 "Hg

Humidity: 100%

Dew point: 32 °F

Location of SarnenLocation

Historic Weather in Sarnen — Graph

°F

Sarnen temperature yesterday

Maximum temperature yesterday: 39 °F (at 9:00 PM)
Minimum temperature yesterday: 17 °F (at 7:00 AM)
Average temperature yesterday: 28 °F

Past Weeks' High & Low Weather Summary

 TemperatureHumidityPressure
High48 °F (Jan 14, 5:00 PM)100% (Jan 15, 2:00 AM)30.50 "Hg (Jan 15, 2:00 AM)
Low17 °F (Jan 28, 7:00 AM)45% (Jan 15, 3:00 PM)29.67 "Hg (Jan 29, 8:00 AM)
Average33 °F93%30.08 "Hg
* Reported Jan 14 8:00 AM — Jan 29 8:00 AM, Sarnen, Weather by CustomWeather, © 2014

Note: Actual official high and low records may vary slightly from our data, if they occured in-between our weather recording intervals... More about our weather records

Advertising

Sarnen weather history for previous 24 hours

 ConditionsComfort  
Time TempWeatherWind HumidityBarometerVisibility
8:00 AM
Jan 29
32 °FChilly.1 mph100%29.67 "HgN/A
7:00 AM32 °FChilly.1 mph100%29.69 "HgN/A
6:00 AM33 °FChilly.1 mph100%29.69 "HgN/A
5:00 AM35 °FChilly.5 mph100%29.68 "HgN/A
3:00 AM35 °FChilly.3 mph100%29.68 "HgN/A
2:00 AM36 °FChilly.6 mph100%29.69 "HgN/A
1:00 AM36 °FChilly.3 mph97%29.69 "HgN/A
12:00 AM36 °FChilly.8 mph83%29.75 "HgN/A
11:00 PM
Jan 28
37 °FChilly.8 mph73%29.74 "HgN/A
10:00 PM39 °FChilly.3 mph65%29.79 "HgN/A
9:00 PM39 °FChilly.15 mph56%29.81 "HgN/A
8:00 PM38 °FChilly.9 mph61%29.88 "HgN/A
7:00 PM31 °FChilly.2 mph90%29.95 "HgN/A
6:00 PM30 °FChilly.3 mph86%29.98 "HgN/A
5:00 PM36 °FChilly.6 mph72%29.99 "HgN/A
4:00 PM37 °FChilly.2 mph68%29.99 "HgN/A
3:00 PM35 °FChilly.2 mph70%30.07 "HgN/A
2:00 PM34 °FChilly.1 mph72%30.11 "HgN/A
1:00 PM34 °FChilly.1 mph69%30.15 "HgN/A
12:00 PM32 °FChilly.2 mph82%30.18 "HgN/A
11:00 AM28 °FChilly.2 mph90%30.22 "HgN/A
10:00 AM19 °FCold.1 mph100%30.29 "HgN/A
Weather by CustomWeather, © 2014

See weather overviewHow to use our weather pages